SCP
2 2 1 1 1 1 1 0 0 0 0 0 0 1 1 1 1 1 1 1 0 0 0 0 0 0 0 0 0 0 0 1 1 1 1 1 0 0 0 0 0 0 0
2 2 1 1 1 1 1 0 0 0 0 0 0 0 0 1 1 1 1 1 0 0 0 0 0 0 0 0 0 0 0 0 0 0 0 0 0 0 0 0 0 0 0
2 2 1 1 1 1 1 1 0 0 0 0 0 0 0 0 1 1 1 1 0 0 0 0 0 0 0 0 0 0 0 0 0 0 0 0 0 0 0 0 0 0 0
2 1 1 1 1 1 1 1 1 0 0 0 0 0 0 0 1 1 1 1 0 0 0 0 0 0 0 0 0 0 0 0 0 0 0 0 0 0 0 0 0 0 0
2 2 2 1 1 1 1 1 1 1 1 1 1 1 1 1 1 1 1 1 1 0 0 0 0 0 0 0 0 0 0 0 0 0 0 0 0 0 0 0 0 0 0
2 2 2 2 2 1 1 1 1 1 1 1 1 1 1 1 1 1 1 1 1 1 1 1 1 0 0 0 0 0 0 0 0 0 0 0 0 0 0 0 0 0 0
3 2 2 2 2 2 1 1 1 1 1 1 1 1 1 1 1 1 1 1 1 1 1 1 1 1 0 0 0 0 0 0 0 1 1 1 1 0 0 0 0 0 0
3 3 2 2 2 2 2 1 1 1 1 1 1 1 1 1 1 1 1 1 1 1 1 1 1 1 1 0 0 0 0 0 1 1 1 1 1 1 0 0 0 0 0
3 3 2 2 2 2 2 2 2 2 2 2 2 2 2 1 1 1 1 1 1 1 1 1 1 1 1 1 0 0 0 0 1 1 1 1 1 1 1 1 0 0 0
4 3 3 2 2 2 2 2 2 2 2 2 2 2 2 1 1 1 1 1 1 1 1 1 1 1 1 1 0 0 0 0 1 1 1 1 1 1 1 1 0 0 0
4 4 3 2 2 2 2 2 2 2 2 2 1 1 1 1 1 1 1 2 2 1 1 1 1 1 1 1 0 0 0 0 0 1 1 1 1 1 1 1 0 0 0
4 4 3 3 2 2 2 2 2 2 2 2 1 1 1 1 1 1 2 2 2 2 1 1 1 1 1 1 1 1 0 0 0 1 1 2 1 1 1 1 1 1 0
4 4 3 3 3 3 3 3 2 2 2 2 2 2 2 2 2 2 2 2 2 2 2 1 1 1 1 1 1 1 1 1 1 1 1 2 2 2 2 1 1 1 1
4 3 3 4 4 4 4 4 3 3 2 2 2 3 3 3 3 3 3 3 2 2 2 2 1 1 1 1 1 1 1 1 1 1 2 2 2 2 2 2 1 1 1
4 4 4 4 4 4 4 4 4 4 4 4 4 4 3 3 4 4 4 3 3 2 2 2 2 2 1 1 1 1 1 2 2 2 2 3 3 3 2 2 2 1 1
4 4 5 5 5 4 5 5 5 5 6 6 6 6 4 4 5 6 5 4 4 3 3 2 2 2 2 2 2 2 2 2 3 2 2 2 2 2 2 2 2 2 1
4 5 5 5 4 4 4 5 5 6 7 9 10 9 7 6 7 7 6 5 4 3 3 3 3 3 3 3 3 2 2 3 3 3 3 2 2 2 2 2 2 2 2
4 5 5 5 5 4 4 4 4 5 7 10 12 10 8 7 8 7 7 6 5 4 4 4 4 3 3 3 3 2 2 3 3 3 3 2 2 2 2 2 2 2 2
4 4 5 5 5 5 5 5 4 5 5 8 11 9 7 7 7 7 7 6 6 5 4 4 4 4 4 3 3 2 2 3 3 3 3 3 3 3 2 2 2 2 2
4 4 5 6 6 6 5 5 5 5 5 6 7 7 6 6 6 6 7 7 6 5 5 5 5 4 4 4 3 2 2 3 3 2 3 3 3 3 3 3 3 2 2
4 4 4 6 6 5 5 5 6 6 5 6 5 5 6 6 6 6 6 6 5 5 5 5 5 4 4 4 3 3 3 3 2 2 2 2 3 3 4 4 4 3 2
4 4 4 5 5 5 5 5 6 6 6 5 5 5 6 6 5 5 5 5 5 5 5 5 5 4 4 4 3 3 2 2 2 2 2 2 2 2 2 3 3 2 1
5 5 5 5 5 5 5 5 5 6 5 5 5 5 5 5 5 4 4 4 5 5 6 6 5 5 5 5 4 3 3 2 2 2 2 1 1 1 1 1 2 1 1
5 5 6 6 6 6 5 5 5 5 5 5 5 5 5 5 5 4 4 5 5 6 6 6 5 5 5 5 4 4 3 2 2 1 1 1 1 1 1 1 1 1 1
4 4 5 6 7 7 6 5 5 5 5 5 5 5 6 5 5 4 4 5 5 6 6 6 5 5 4 4 4 4 3 3 2 1 1 0 0 0 0 0 1 1 1
3 4 4 5 6 7 7 6 6 5 5 5 5 5 5 5 5 4 4 4 5 5 6 6 5 5 4 4 4 4 3 2 2 1 1 0 0 0 0 0 0 0 0
Wind_Speed
17 18 18 17 16 16 16 15 15 14 14 14 13 13 13 14 14 14 14 14 13 12 12 11 9 9 10 11 12 13 13 14 14 15 16 15 14 12 11 10 13 13 15
20 18 17 17 16 16 16 15 15 14 14 13 13 13 13 13 13 12 12 12 12 12 11 11 10 10 10 10 10 11 11 11 11 13 14 13 13 12 12 12 14 11 13
20 18 17 16 16 16 16 15 14 14 14 13 13 12 12 12 11 11 11 11 10 11 11 10 10 10 10 10 10 10 9 9 8 9 11 10 10 12 13 15 15 14 13
20 17 16 16 15 16 16 15 14 14 14 13 13 12 12 11 11 10 10 10 10 9 9 9 9 9 9 9 9 8 7 6 6 6 4 7 9 12 12 12 12 12 11
18 17 16 16 15 15 15 15 15 14 14 13 13 12 12 11 10 9 9 9 9 8 8 9 9 9 9 8 8 7 6 5 5 6 2 8 8 11 11 10 10 10 10
19 18 16 16 15 15 14 15 15 14 14 13 13 12 11 11 10 9 9 8 8 8 8 8 8 8 8 8 7 6 5 4 5 5 3 9 9 11 11 9 9 9 8
20 18 16 15 15 14 14 13 13 14 13 13 12 12 11 10 9 9 8 8 8 8 8 8 8 7 7 7 6 5 4 5 6 4 3 9 10 12 10 9 8 8 7
19 18 15 16 16 15 14 13 12 12 12 12 12 11 11 10 9 8 8 8 7 7 7 7 7 7 6 6 5 4 5 7 6 4 6 10 13 13 11 9 7 7 6
19 17 15 14 14 14 14 13 12 12 12 12 11 11 11 10 9 9 8 7 7 7 7 7 7 6 6 5 5 5 6 7 8 3 7 8 13 13 11 9 7 6 5
17 16 14 14 13 12 12 13 13 12 12 11 11 11 11 11 10 9 8 8 8 8 8 7 7 7 6 5 5 5 7 7 8 2 6 9 14 13 11 9 8 7 6
14 14 13 13 12 12 12 13 12 12 11 11 10 11 10 8 9 8 9 10 9 8 8 8 8 7 7 7 7 7 6 5 5 1 5 12 13 13 11 9 8 7 6
12 11 10 11 10 9 9 10 8 8 9 8 8 9 7 6 6 8 10 13 10 9 8 9 9 8 7 6 8 8 5 7 4 2 6 16 14 13 11 10 9 8 7
9 7 7 7 7 6 7 6 5 5 7 7 8 8 6 5 4 4 5 7 7 8 7 7 8 7 7 6 5 6 7 6 2 2 8 14 13 12 11 10 9 8 7
8 6 5 5 5 5 5 5 4 4 5 5 5 7 5 3 3 3 4 6 6 5 6 6 5 7 7 7 6 8 7 4 2 4 7 12 12 11 11 10 9 8 7
7 5 5 5 5 4 4 2 3 3 4 4 4 5 5 3 3 3 2 3 5 4 5 5 6 6 6 5 4 5 4 3 4 5 5 10 11 10 10 10 9 8 7
7 6 5 4 4 4 2 1 1 1 3 3 3 5 5 4 3 2 2 2 3 3 3 4 5 3 3 2 2 1 0 1 3 6 5 6 9 10 10 10 9 9 7
7 7 4 2 4 3 2 1 1 0 1 1 2 3 4 3 3 3 2 2 3 3 2 2 3 2 3 2 1 1 1 2 3 5 6 5 5 7 8 8 9 8 8
7 7 5 4 5 3 2 1 1 1 0 0 1 1 2 2 2 2 3 3 3 3 2 2 2 2 2 1 1 0 1 2 3 3 4 4 4 4 5 8 8 9 9
8 8 7 6 5 3 2 1 1 1 1 1 1 1 1 1 1 2 3 3 3 3 3 4 3 2 2 2 1 1 1 2 2 3 3 4 4 5 4 7 9 9 9
8 8 7 7 7 5 3 2 1 1 1 1 1 1 1 1 1 2 2 3 3 3 3 3 3 3 3 3 2 1 1 2 2 2 2 3 4 5 5 6 5 7 10
9 8 8 8 8 6 4 3 2 1 1 0 1 2 1 0 1 1 2 2 3 3 4 4 4 4 3 4 3 1 1 1 2 1 1 2 4 4 5 6 5 5 6
9 8 8 8 7 6 4 3 2 2 1 1 2 3 2 1 2 2 1 2 3 3 4 4 4 3 4 5 4 3 2 2 1 1 2 2 3 3 4 6 6 6 6
9 9 8 8 8 7 6 4 3 2 1 2 2 2 2 2 2 2 2 2 2 3 3 4 4 5 4 4 4 4 5 5 3 1 2 2 3 3 3 4 6 7 7
8 8 9 8 8 8 7 6 5 4 3 3 2 2 2 2 2 2 3 3 2 2 2 3 3 4 5 4 4 4 3 4 5 4 2 2 3 4 3 4 6 6 7
8 9 9 9 9 9 8 8 6 5 4 3 3 4 3 2 3 3 3 2 2 2 2 2 2 2 3 4 3 3 4 2 3 4 4 4 3 3 3 4 5 5 6
8 8 8 9 9 9 9 9 8 7 6 6 5 5 3 3 3 5 4 3 3 2 2 2 2 2 2 3 3 3 3 3 4 4 4 6 5 3 4 3 4 5 5
Wind_Direction
121 127 132 132 134 136 135 134 132 130 127 124 120 116 112 108 105 104 103 105 108 111 111 108 103 97 91 86 84 86 89 89 89 90 90 90 89 86 83 93 101 90 90
124 128 131 132 135 138 139 138 136 134 132 130 128 126 122 118 115 112 110 110 112 114 114 112 109 105 103 101 99 98 99 100 102 106 107 100 92 83 73 73 89 97 94
122 129 132 133 136 140 142 141 140 138 137 136 135 132 129 125 122 119 117 115 115 117 117 115 114 112 113 112 111 112 114 119 125 135 138 116 102 89 83 85 93 97 95
127 136 133 134 137 141 144 143 143 144 143 141 140 138 136 133 130 126 124 122 119 118 120 120 119 119 121 122 123 125 133 143 157 175 185 121 112 101 94 94 96 99 98
130 128 127 135 137 141 145 146 147 148 148 147 146 145 142 140 136 133 133 131 126 124 125 127 126 127 130 132 133 139 156 177 199 226 188 108 104 114 108 105 103 102 101
127 125 130 134 135 140 144 148 151 152 151 150 150 149 147 145 142 141 141 139 135 133 133 134 134 136 139 140 143 156 182 214 238 238 180 122 117 124 121 117 114 111 108
126 127 131 131 132 137 143 147 151 152 152 152 152 151 150 148 147 147 148 145 144 143 142 142 142 144 147 149 156 174 208 244 255 270 123 116 125 132 131 128 123 121 119
125 127 130 131 133 135 139 143 147 150 151 152 152 153 152 152 151 152 154 153 154 154 153 150 149 152 155 160 171 198 233 263 263 261 126 121 135 139 139 139 136 135 131
126 131 140 139 137 137 137 139 140 143 148 150 151 152 153 154 156 158 158 159 162 161 160 159 160 165 165 171 187 218 248 269 286 271 125 124 141 143 145 149 151 152 150
129 135 144 149 147 148 145 144 143 142 144 148 153 157 158 160 166 168 168 169 170 171 171 172 173 176 176 185 201 226 252 276 270 249 116 134 145 147 151 157 162 166 168
130 136 148 149 153 160 154 148 148 148 149 153 160 164 167 177 179 180 190 170 178 181 182 181 181 184 186 198 212 228 250 259 258 134 123 143 149 150 156 164 170 175 179
124 134 140 145 153 158 148 145 160 166 160 177 173 173 190 198 192 189 175 165 178 187 192 193 193 195 206 204 209 220 237 243 255 167 141 149 150 154 160 169 177 183 188
115 108 117 128 131 137 131 152 167 173 161 189 185 179 200 209 197 182 156 163 177 188 198 194 199 212 215 217 191 199 226 236 214 139 142 150 152 157 162 171 179 186 194
83 91 104 109 116 120 128 157 166 164 158 181 180 182 195 211 214 180 167 175 183 192 201 190 206 219 224 227 206 202 213 220 160 117 144 149 151 156 163 171 177 183 192
79 73 80 83 82 82 93 153 159 152 159 178 169 181 191 197 225 213 186 182 196 195 193 198 207 216 225 234 235 222 208 195 137 124 137 149 150 154 162 169 175 181 184
73 59 50 65 74 69 83 102 107 149 143 169 168 188 195 197 197 209 206 202 224 221 199 209 219 211 211 240 260 287 268 185 116 125 134 139 142 150 155 160 163 166 168
59 63 47 81 79 68 56 12 61 79 130 158 158 181 194 206 191 197 215 213 238 246 219 224 234 229 201 198 245 318 8 33 80 111 124 127 131 134 140 146 152 152 149
39 51 37 46 65 59 48 10 350 355 64 148 140 154 191 220 194 196 212 216 228 243 234 224 229 231 210 167 150 296 40 55 67 88 100 115 124 123 127 136 136 137 137
49 48 40 31 42 31 24 18 334 14 14 22 64 87 129 238 228 214 221 218 217 229 224 225 209 205 195 162 159 175 62 62 69 85 86 100 107 118 126 127 125 125 128
56 47 37 35 32 19 24 21 354 9 12 76 90 91 114 213 241 242 239 229 224 225 225 221 206 201 189 164 170 151 88 70 67 84 95 93 99 113 123 121 117 110 116
52 45 36 32 28 19 20 6 351 359 6 23 90 84 67 316 266 248 255 241 228 224 222 223 214 197 190 159 146 134 79 83 82 66 97 100 93 92 101 112 110 106 106
48 40 38 31 27 21 13 348 329 336 344 55 63 60 41 19 348 283 264 254 235 231 221 215 210 202 199 183 173 157 169 163 97 70 81 98 104 100 101 109 109 107 104
48 40 35 30 27 20 11 2 353 359 15 47 56 61 36 18 12 345 319 286 267 245 232 217 209 211 207 204 198 182 176 180 144 119 86 88 100 101 98 102 106 103 105
49 51 43 36 30 22 20 19 12 12 16 20 16 33 43 30 19 360 336 322 306 287 261 237 215 221 207 208 215 215 199 146 152 148 120 89 89 89 93 105 103 104 105
51 55 49 41 34 26 24 24 20 24 22 19 17 20 23 32 27 11 353 337 312 302 296 267 240 222 214 217 215 206 203 180 152 145 153 147 107 73 77 86 97 97 100
54 53 50 46 38 31 30 28 25 25 24 24 22 14 13 21 23 11 5 353 340 334 318 293 254 230 229 227 227 216 193 176 176 154 148 150 133 99 71 65 88 98 101